Location: *
(46.1866°S, 178.5290°W)
Time: 13:29:22
(UTC+00:00)

Cosmos 1898 Rocket - Pass Details

Date: 19 May 2021
Orbit: 753 x 784 km, 74.0° (Epoch: 21 June)

Event Time Altitude Azimuth Distance (km) Brightness Sun altitude
Rises 05:39:50 0° 195° (SSW) 3,251 6.8 -12.4°
Reaches altitude 10° 05:42:30 10° 184° (S) 2,321 5.9 -12.8°
Maximum altitude 05:47:08 31° 123° (ESE) 1,341 4.2 -13.6°
Enters shadow 05:51:07 13° 65° (ENE) 2,103 5.3 -14.2°
